CCA711 KSLC-KDEN

Flight info

Callsign CCA711
Flight time N/A
Altitude 37000
Route RUGGD3 PERTY KAMPR LONGZ4
Aircraft B38M/M-SDE1FGHILORVWXY/HB1

Departure

Time 2026-05-06 07:09
Airport Salt Lake City International Airport (KSLC)

Arrival

Time N/A
Airport Denver International Airport (KDEN)
Time Latitude Longitude Altitude Speed Heading
2026-05-06 06:50 40.77776 -111.97816 4237 ft 0 kts 265°
2026-05-06 07:03 40.77776 -111.97813 4237 ft 2 kts 265°
2026-05-06 07:03 40.77778 -111.97791 4223 ft 2 kts 265°
2026-05-06 07:03 40.77779 -111.97770 4238 ft 2 kts 265°
2026-05-06 07:04 40.77781 -111.97748 4237 ft 2 kts 265°
2026-05-06 07:04 40.77782 -111.97726 4237 ft 2 kts 264°
2026-05-06 07:04 40.77784 -111.97705 4237 ft 2 kts 243°
2026-05-06 07:04 40.77797 -111.97694 4236 ft 2 kts 183°
2026-05-06 07:05 40.77804 -111.97694 4237 ft 0 kts 177°
2026-05-06 07:06 40.77778 -111.97691 4238 ft 10 kts 175°
2026-05-06 07:06 40.77663 -111.97678 4238 ft 20 kts 175°
2026-05-06 07:07 40.77535 -111.97679 4239 ft 18 kts 185°
2026-05-06 07:07 40.77431 -111.97667 4238 ft 15 kts 143°
2026-05-06 07:07 40.77417 -111.97571 4239 ft 12 kts 83°
2026-05-06 07:07 40.77437 -111.97457 4236 ft 15 kts 73°
2026-05-06 07:08 40.77504 -111.97338 4235 ft 17 kts 28°
2026-05-06 07:08 40.77633 -111.97334 4236 ft 26 kts 355°
2026-05-06 07:08 40.78079 -111.97385 4237 ft 102 kts 355°
2026-05-06 07:08 40.79021 -111.97494 4239 ft 167 kts 354°
2026-05-06 07:09 40.79873 -111.97588 4415 ft 189 kts 353°
2026-05-06 07:09 40.81161 -111.97737 5468 ft 186 kts 352°
2026-05-06 07:09 40.82471 -111.97988 6246 ft 196 kts 351°
2026-05-06 07:09 40.83895 -111.98279 6740 ft 219 kts 351°
2026-05-06 07:10 40.85486 -111.98598 7237 ft 243 kts 351°
2026-05-06 07:10 40.87225 -111.98945 7876 ft 261 kts 351°
2026-05-06 07:10 40.89078 -111.99307 8597 ft 275 kts 351°
2026-05-06 07:10 40.90973 -111.99672 9653 ft 276 kts 351°
2026-05-06 07:11 40.92897 -112.00043 10491 ft 285 kts 351°
2026-05-06 07:11 40.94921 -112.00418 11050 ft 302 kts 351°
2026-05-06 07:11 40.97058 -112.00690 11723 ft 312 kts 353°
2026-05-06 07:11 40.99221 -112.00547 12733 ft 316 kts 13°
2026-05-06 07:12 41.01174 -111.99160 13697 ft 327 kts 36°
2026-05-06 07:12 41.02640 -111.96841 14468 ft 340 kts 53°
2026-05-06 07:12 41.03544 -111.93894 15246 ft 353 kts 73°
2026-05-06 07:12 41.03547 -111.90584 15969 ft 369 kts 98°
2026-05-06 07:13 41.02939 -111.87250 16688 ft 374 kts 97°
2026-05-06 07:13 41.02408 -111.83855 17342 ft 379 kts 97°
2026-05-06 07:13 41.01886 -111.80414 18021 ft 383 kts 96°
2026-05-06 07:13 41.01364 -111.76924 18608 ft 389 kts 96°
2026-05-06 07:14 41.00848 -111.73439 19229 ft 391 kts 96°
2026-05-06 07:14 41.00317 -111.69889 19832 ft 394 kts 95°
2026-05-06 07:14 40.99784 -111.66311 20416 ft 398 kts 95°
2026-05-06 07:14 40.99242 -111.62702 21022 ft 401 kts 95°
2026-05-06 07:15 40.98693 -111.59061 21569 ft 405 kts 94°
2026-05-06 07:15 40.98142 -111.55388 22158 ft 409 kts 94°
2026-05-06 07:15 40.97583 -111.51680 22730 ft 412 kts 94°
2026-05-06 07:15 40.97016 -111.47947 23260 ft 416 kts 94°
2026-05-06 07:16 40.96448 -111.44175 23752 ft 420 kts 93°
2026-05-06 07:16 40.95872 -111.40378 24238 ft 422 kts 94°
2026-05-06 07:16 40.95290 -111.36563 24726 ft 424 kts 94°
2026-05-06 07:16 40.94703 -111.32733 25190 ft 426 kts 93°
2026-05-06 07:17 40.94113 -111.28876 25651 ft 428 kts 93°
2026-05-06 07:17 40.93520 -111.25014 26110 ft 429 kts 93°
2026-05-06 07:17 40.92931 -111.21187 26533 ft 432 kts 93°
2026-05-06 07:17 40.92327 -111.17283 26988 ft 433 kts 93°
2026-05-06 07:18 40.91722 -111.13371 27445 ft 436 kts 93°
2026-05-06 07:18 40.91112 -111.09435 27884 ft 438 kts 93°
2026-05-06 07:18 40.90498 -111.05484 28292 ft 440 kts 93°
2026-05-06 07:18 40.89878 -111.01510 28736 ft 442 kts 93°
2026-05-06 07:19 40.89253 -110.97519 29147 ft 445 kts 93°
2026-05-06 07:19 40.88623 -110.93498 29528 ft 447 kts 93°
2026-05-06 07:19 40.87990 -110.89467 29906 ft 449 kts 93°
2026-05-06 07:19 40.87350 -110.85413 30237 ft 452 kts 93°
2026-05-06 07:20 40.86705 -110.81332 30517 ft 455 kts 93°
2026-05-06 07:20 40.86055 -110.77232 30833 ft 457 kts 93°
2026-05-06 07:20 40.85401 -110.73112 31098 ft 459 kts 94°
2026-05-06 07:20 40.84749 -110.69021 31395 ft 462 kts 94°
2026-05-06 07:21 40.84077 -110.64806 31674 ft 464 kts 94°
2026-05-06 07:21 40.83417 -110.60684 31934 ft 467 kts 94°
2026-05-06 07:21 40.82733 -110.56425 32226 ft 469 kts 94°
2026-05-06 07:21 40.82063 -110.52264 32507 ft 471 kts 94°
2026-05-06 07:22 40.81378 -110.48019 32768 ft 473 kts 95°
2026-05-06 07:22 40.80689 -110.43756 33029 ft 476 kts 95°
2026-05-06 07:22 40.79995 -110.39477 33309 ft 478 kts 95°
2026-05-06 07:22 40.79295 -110.35166 33611 ft 480 kts 95°
2026-05-06 07:23 40.78592 -110.30861 33915 ft 480 kts 95°
2026-05-06 07:23 40.77889 -110.26563 34226 ft 480 kts 96°
2026-05-06 07:23 40.77183 -110.22253 34535 ft 480 kts 96°
2026-05-06 07:23 40.76476 -110.17951 34798 ft 480 kts 96°
2026-05-06 07:24 40.75766 -110.13643 35126 ft 479 kts 96°
2026-05-06 07:24 40.75057 -110.09345 35410 ft 479 kts 97°
2026-05-06 07:24 40.74378 -110.05051 35657 ft 477 kts 92°
2026-05-06 07:24 40.74048 -110.00729 35928 ft 473 kts 89°
2026-05-06 07:25 40.73752 -109.96409 36154 ft 474 kts 90°
2026-05-06 07:25 40.73463 -109.92139 36400 ft 474 kts 90°
2026-05-06 07:25 40.73168 -109.87754 36625 ft 474 kts 90°
2026-05-06 07:25 40.72876 -109.83424 36849 ft 474 kts 90°
2026-05-06 07:26 40.72586 -109.79138 36983 ft 476 kts 90°
2026-05-06 07:26 40.71993 -109.70466 36979 ft 474 kts 90°
2026-05-06 07:27 40.71393 -109.61795 36988 ft 476 kts 91°
2026-05-06 07:27 40.70784 -109.53090 37005 ft 478 kts 91°
2026-05-06 07:28 40.70167 -109.44392 36868 ft 469 kts 91°
2026-05-06 07:28 40.69852 -109.40443 38631 ft 367 kts 92°
2026-05-06 07:28 40.69270 -109.35941 40879 ft 224 kts 96°
2026-05-06 07:29 40.68937 -109.33474 37353 ft 331 kts 90°
2026-05-06 07:29 40.69277 -109.30388 35437 ft 332 kts 45°
2026-05-06 07:29 40.70848 -109.28848 34882 ft 257 kts 351°